• MPC Preparation (Info)

  • MPEC 2013-V54 : 2013 VB10

    The following Minor Planet Electronic Circular may be linked-to from your own Web pages, but must not otherwise be redistributed electronically.

    A form allowing access to any MPEC is at the bottom of this page.


    Read MPEC 2013-V53 Read MPEC 2013-V55


    M.P.E.C. 2013-V54                                Issued 2013 Nov.  9, 14:24 UT
    
         The Minor Planet Electronic Circulars contain information on unusual
             minor planets and routine data on comets.  They are published
       on behalf of Commission 20 of the International Astronomical Union by the
              Minor Planet Center, Smithsonian Astrophysical Observatory,
                              Cambridge, MA 02138, U.S.A.
    
                 Prepared using the Tamkin Foundation Computer Network
    
                                  MPC@CFA.HARVARD.EDU
                URL https://www.minorplanetcenter.net/    ISSN 1523-6714
    
                                       2013 VB10
    
    Observations:
         K13V10B* C2013 11 08.17845 01 01 11.53 +07 56 28.4          19.8 VqEV054G96
         K13V10B  C2013 11 08.18695 01 01 09.59 +07 57 46.5          19.8 VqEV054G96
         K13V10B  C2013 11 08.19545 01 01 07.69 +07 59 03.6          19.7 VqEV054G96
         K13V10B  C2013 11 08.20396 01 01 05.75 +08 00 20.9          19.8 VqEV054G96
         K13V10B  C2013 11 08.23995 01 00 57.59 +08 05 47.8          20.3 VqEV054G96
         K13V10B  C2013 11 08.24035 01 00 57.51 +08 05 51.6          19.7 VqEV054G96
         K13V10B  C2013 11 08.24075 01 00 57.41 +08 05 55.1          20.0 VqEV054G96
         K13V10B  C2013 11 08.24114 01 00 57.32 +08 05 58.7          19.9 VqEV054G96
         K13V10B KC2013 11 08.27767501 00 48.23 +08 11 22.4          19.8 VrEV054H21
         K13V10B KC2013 11 08.28268101 00 47.15 +08 12 09.1          19.4 VrEV054H21
         K13V10B KC2013 11 08.28688101 00 46.21 +08 12 45.9          19.8 VrEV054H21
         K13V10B  C2013 11 08.32933 01 00 37.58 +08 19 18.5          20.1 RcEV054651
         K13V10B  C2013 11 08.33208 01 00 36.87 +08 19 44.4          20.1 RcEV054651
         K13V10B KC2013 11 08.84675 00 58 54.91 +09 36 35.6                qEV054J95
         K13V10B KC2013 11 08.85646 00 58 52.78 +09 38 01.2          20.0 RqEV054J95
         K13V10B KC2013 11 09.17027 00 57 49.68 +10 24 39.6          20.4 RqEV054448
         K13V10B KC2013 11 09.18290900 57 45.96 +10 26 25.1          20.2 VuEV054H21
         K13V10B KC2013 11 09.18851500 57 44.75 +10 27 14.6          20.2 VuEV054H21
         K13V10B KC2013 11 09.19400800 57 43.55 +10 28 03.2          20.5 VuEV054H21
         K13V10B KC2013 11 09.19454 00 57 44.37 +10 28 13.7          20.5 RqEV054448
         K13V10B KC2013 11 09.21908 00 57 39.02 +10 31 49.7          20.5 RqEV054448
    
    Observer details:
    448 Desert Moon Observatory.  Observer B. L. Stevens.  0.3-m
        Schmidt-Cassegrain + CCD.
    651 Grasslands Observatory, Tucson.  Observer J. E. McGaha.  0.62-m f/5.1
        Newtonian reflector + CCD.
    G96 Mt. Lemmon Survey.  Observer R. A. kowalski.  Measurers A. Boattini,
        E. J. Christensen, A. R. Gibbs, A. D. Grauer, R. E. Hill, J. A. Johnson,
        R. A. Kowalski, S. M. Larson, F. C. Shelly.  1.5-m reflector + CCD.
    H21 Astronomical Research Observatory, Westfield.  Observer R. Holmes.
        Measurers S. Foglia, L. Buzzi, H. Devore, A. Kostin, T. Linder,
        T. Lister. T. Vorobjov, T. Vorobjov.  0.61-m f/4.0 astrograph + CCD,
        0.61-m f/4.5 astrograph + CCD, 0.81-m f/4.0 astrograph + CCD.
    J95 Great Shefford.  Observer P. Birtwhistle.  0.40-m f/6.0 Schmidt-Cassegrain
        + CCD.
    
    Orbital elements:
    2013 VB10                                                Earth MOID = 0.1402 AU
    Epoch 2013 Nov. 4.0 TT = JDT 2456600.5                  MPC
    M   4.28760              (2000.0)            P               Q
    n   0.47862347     Peri.  348.15690     +0.85768902     -0.43780922
    a   1.6186019      Node    41.44608     +0.49871668     +0.58077778
    e   0.3031837      Incl.   24.03702     +0.12510484     +0.68630916
    P   2.06           H   22.7           G   0.15           U   8
    Residuals in seconds of arc
    131108 G96  0.1-  0.3-    131108 G96  0.1-  0.2-    131108 J95  0.2-  0.6-
    131108 G96  0.3-  0.4+    131108 H21  0.0   0.7-    131109 448  0.0   0.1-
    131108 G96  0.1+  0.1+    131108 H21  0.3+  0.7+    131109 H21  0.1-  0.0
    131108 G96  0.1-  0.1-    131108 H21  0.0   0.5-    131109 H21  0.0   0.1+
    131108 G96  0.1-  0.3-    131108 651  0.8+  0.2+    131109 H21  0.2-  0.4+
    131108 G96  0.1+  0.2-    131108 651  0.7-  1.3+    131109 448  0.1-  0.1-
    131108 G96  0.1-  0.3-    131108 J95  0.3+  0.5+    131109 448  0.1+  0.2-
    
    Ephemeris:
    2013 VB10                a,e,i = 1.62, 0.30, 24                  q = 1.1279
    Date    TT    R. A. (2000) Decl.     Delta      r     Elong.  Phase     V
    2013 10 10    03 00 15.6 -47 52 24   0.2404  1.1369   119.6    49.8    21.7
    ...
    2013 10 25    01 59 49.3 -28 07 03   0.1678  1.1279   139.9    34.6    20.5
    ...
    2013 11 02    01 24 49.4 -08 32 24   0.1529  1.1296   151.9    24.4    20.0
    ...
    2013 11 08    01 01 48.0 +07 29 36   0.1597  1.1338   151.5    24.6    20.1
    2013 11 09    00 58 23.3 +09 59 47   0.1623  1.1347   150.6    25.4    20.2
    2013 11 10    00 55 06.7 +12 25 03   0.1653  1.1357   149.4    26.4    20.3
    ...
    2013 11 16    00 38 25.5 +24 55 56   0.1903  1.1431   141.0    33.0    20.8
    ...
    2013 11 24    00 24 10.0 +36 27 05   0.2369  1.1566   131.0    40.1    21.5
    ...
    2013 12 09    00 19 42.4 +48 11 55   0.3439  1.1920   119.4    46.1    22.5
    
    A. U. Tomatic                (C) Copyright 2013 MPC           M.P.E.C. 2013-V54
    

    Read MPEC 2013-V53 Read MPEC 2013-V55


    MPEC number:

    Enter an MPEC number in one of the following forms:

    • 1997-B01 (the full form)
    • J97B01 (the packed version of the full form)
    • B01 (the abbreviated form)